Location: Alafon
(8.4500°N, 4.2333°E)
Time: 01:53:31
(UTC+00:00)

Cosmos 1818 - Pass Details

Date: 05 July 2020
Orbit: 777 x 796 km, 65.0° (Epoch: 06 August)

Event Time Altitude Azimuth Distance (km) Brightness Sun altitude
Rises 18:53:10 0° 197° (SSW) 3,254 6.7 -11.5°
Reaches altitude 10° 18:55:35 10° 195° (SSW) 2,328 5.9 -12.1°
Maximum altitude 19:00:54 72° 111° (ESE) 823 3.5 -13.3°
Drops below altitude 10° 19:06:15 10° 28° (NNE) 2,339 6.0 -14.4°
Sets 19:08:40 0° 26° (NNE) 3,270 6.8 -15.0°
